EN

Hourly Weather Lahdenkyulya

Today, 24 July, Saturday

Time Temperature Precipitation Wind Pressure Humidity
00:00 +9°C° 0 mm 3 mps 757 mmHg 78%
01:00 +8°C° 0 mm 2 mps 757 mmHg 83%
02:00 +8°C° 0 mm 2 mps 758 mmHg 88%
03:00 +8°C° 0 mm 2 mps 758 mmHg 84%
04:00 +9°C° 0 mm 2 mps 758 mmHg 81%
05:00 +9°C° 0 mm 2 mps 758 mmHg 77%
06:00 +12°C° 0 mm 2 mps 758 mmHg 68%
07:00 +14°C° 0 mm 2 mps 759 mmHg 59%
08:00 +16°C° 0 mm 2 mps 759 mmHg 49%
09:00 +17°C° 0 mm 2 mps 759 mmHg 46%
10:00 +18°C° 0 mm 3 mps 759 mmHg 43%
11:00 +19°C° 0 mm 3 mps 759 mmHg 40%
12:00 +19°C° 0 mm 3 mps 759 mmHg 38%
13:00 +20°C° 0 mm 3 mps 759 mmHg 37%
14:00 +21°C° 0 mm 3 mps 759 mmHg 35%
15:00 +21°C° 0 mm 3 mps 759 mmHg 36%
16:00 +21°C° 0 mm 3 mps 759 mmHg 38%
17:00 +20°C° 0 mm 3 mps 759 mmHg 39%
18:00 +19°C° 0 mm 3 mps 759 mmHg 46%
19:00 +18°C° 0 mm 3 mps 759 mmHg 52%
20:00 +17°C° 0 mm 3 mps 759 mmHg 59%
21:00 +17°C° 0 mm 2 mps 759 mmHg 60%
22:00 +16°C° 0 mm 2 mps 759 mmHg 61%
23:00 +16°C° 0 mm 2 mps 759 mmHg 62%

Tomorrow, 25 July, Sunday

Time Temperature Precipitation Wind Pressure Humidity
00:00 +16°C° 0 mm 2 mps 759 mmHg 62%
01:00 +16°C° 0 mm 2 mps 759 mmHg 63%
02:00 +16°C° 0 mm 2 mps 759 mmHg 63%
03:00 +16°C° 0 mm 2 mps 759 mmHg 65%
04:00 +16°C° 0 mm 2 mps 760 mmHg 68%
05:00 +16°C° 0 mm 2 mps 760 mmHg 70%
06:00 +18°C° 0 mm 2 mps 760 mmHg 63%
07:00 +19°C° 0 mm 2 mps 760 mmHg 56%
08:00 +21°C° 0 mm 2 mps 760 mmHg 49%
09:00 +23°C° 0 mm 2 mps 760 mmHg 45%
10:00 +24°C° 0 mm 3 mps 760 mmHg 41%
11:00 +25°C° 0 mm 3 mps 760 mmHg 36%
12:00 +25°C° 0 mm 3 mps 760 mmHg 36%
13:00 +26°C° 0 mm 3 mps 761 mmHg 36%
14:00 +26°C° 0 mm 3 mps 761 mmHg 37%
15:00 +26°C° 0 mm 3 mps 761 mmHg 38%
16:00 +26°C° 0 mm 3 mps 761 mmHg 39%
17:00 +26°C° 0 mm 3 mps 761 mmHg 40%
18:00 +25°C° 0 mm 2 mps 761 mmHg 46%
19:00 +23°C° 0 mm 2 mps 761 mmHg 52%
20:00 +21°C° 0 mm 2 mps 761 mmHg 58%
21:00 +21°C° 0 mm 2 mps 762 mmHg 59%
22:00 +20°C° 0 mm 2 mps 762 mmHg 60%
23:00 +20°C° 0 mm 2 mps 762 mmHg 61%

Day after tomorrow, 26 July, Monday

Time Temperature Precipitation Wind Pressure Humidity
00:00 +19°C° 0 mm 2 mps 762 mmHg 63%
01:00 +19°C° 0 mm 2 mps 762 mmHg 66%
02:00 +18°C° 0 mm 2 mps 762 mmHg 68%
03:00 +18°C° 0 mm 2 mps 762 mmHg 69%
04:00 +18°C° 0 mm 2 mps 762 mmHg 70%
05:00 +20°C° 0 mm 1 mps 763 mmHg 71%
06:00 +20°C° 0 mm 2 mps 763 mmHg 64%
07:00 +23°C° 0 mm 2 mps 763 mmHg 57%
08:00 +25°C° 0 mm 2 mps 763 mmHg 51%
09:00 +26°C° 0 mm 2 mps 763 mmHg 47%
10:00 +27°C° 0 mm 2 mps 763 mmHg 43%
11:00 +28°C° 0 mm 2 mps 763 mmHg 39%
12:00 +29°C° 0 mm 3 mps 763 mmHg 38%
13:00 +29°C° 0 mm 3 mps 763 mmHg 37%
14:00 +29°C° 0 mm 3 mps 763 mmHg 35%
15:00 +29°C° 0 mm 3 mps 763 mmHg 36%
16:00 +29°C° 0 mm 3 mps 763 mmHg 37%
17:00 +28°C° 0 mm 3 mps 762 mmHg 38%
18:00 +26°C° 0 mm 3 mps 762 mmHg 45%
19:00 +25°C° 0 mm 2 mps 762 mmHg 53%
20:00 +23°C° 0 mm 2 mps 762 mmHg 60%
21:00 +21°C° 0 mm 2 mps 763 mmHg 61%
22:00 +20°C° 0 mm 2 mps 763 mmHg 63%
23:00 +19°C° 0 mm 2 mps 763 mmHg 65%

27 July, Tuesday

Time Temperature Precipitation Wind Pressure Humidity
00:00 +19°C° 0 mm 1 mps 763 mmHg 67%
01:00 +19°C° 0 mm 1 mps 763 mmHg 68%
02:00 +18°C° 0 mm 1 mps 763 mmHg 70%
03:00 +19°C° 0 mm 1 mps 763 mmHg 70%
04:00 +19°C° 0 mm 1 mps 763 mmHg 69%
05:00 +20°C° 0 mm 1 mps 763 mmHg 68%
06:00 +22°C° 0 mm 1 mps 763 mmHg 60%
07:00 +24°C° 0 mm 1 mps 763 mmHg 53%
08:00 +26°C° 0 mm 1 mps 763 mmHg 45%
09:00 +27°C° 0 mm 2 mps 763 mmHg 42%
10:00 +28°C° 0 mm 2 mps 762 mmHg 38%
11:00 +30°C° 0 mm 2 mps 762 mmHg 34%
12:00 +30°C° 0 mm 3 mps 762 mmHg 34%
13:00 +30°C° 0 mm 3 mps 762 mmHg 33%
14:00 +30°C° 0 mm 3 mps 762 mmHg 33%
15:00 +29°C° 0 mm 3 mps 761 mmHg 34%
16:00 +29°C° 0 mm 3 mps 761 mmHg 35%
17:00 +28°C° 0 mm 3 mps 760 mmHg 36%
18:00 +26°C° 0 mm 2 mps 760 mmHg 45%
19:00 +24°C° 0 mm 2 mps 760 mmHg 54%
20:00 +21°C° 0 mm 2 mps 760 mmHg 63%
21:00 +21°C° 0 mm 1 mps 759 mmHg 66%
22:00 +20°C° 0 mm 1 mps 759 mmHg 70%
23:00 +19°C° 0 mm 1 mps 759 mmHg 73%

28 July, Wednesday

Time Temperature Precipitation Wind Pressure Humidity
00:00 +19°C° 0 mm 1 mps 759 mmHg 74%
01:00 +19°C° 0 mm 1 mps 758 mmHg 74%
02:00 +16°C° 0 mm 0 mps 758 mmHg 74%
03:00 +17°C° 0 mm 0 mps 758 mmHg 71%
04:00 +20°C° 0 mm 1 mps 757 mmHg 69%
05:00 +20°C° 0 mm 1 mps 757 mmHg 67%
06:00 +22°C° 0 mm 1 mps 757 mmHg 61%
07:00 +24°C° 0 mm 2 mps 756 mmHg 56%
08:00 +26°C° 0 mm 2 mps 756 mmHg 50%
09:00 +27°C° 0 mm 3 mps 756 mmHg 49%
10:00 +27°C° 0 mm 3 mps 755 mmHg 49%
11:00 +28°C° 0 mm 3 mps 755 mmHg 48%
12:00 +28°C° 0 mm 3 mps 755 mmHg 48%
13:00 +28°C° 0 mm 3 mps 754 mmHg 49%
14:00 +27°C° 0 mm 4 mps 754 mmHg 50%
15:00 +26°C° 0 mm 3 mps 754 mmHg 55%
16:00 +25°C° 0 mm 3 mps 753 mmHg 61%
17:00 +22°C° 0 mm 3 mps 753 mmHg 67%
18:00 +22°C° 0 mm 3 mps 753 mmHg 72%
19:00 +21°C° 0 mm 3 mps 752 mmHg 78%
20:00 +20°C° 0 mm 3 mps 752 mmHg 83%
21:00 +19°C° 0.2 mm 3 mps 751 mmHg 88%
22:00 +18°C° 0.2 mm 2 mps 751 mmHg 93%
23:00 +17°C° 0.2 mm 2 mps 751 mmHg 99%

29 July, Thursday

Time Temperature Precipitation Wind Pressure Humidity
00:00 +18°C° 0.1 mm 2 mps 750 mmHg 98%
01:00 +18°C° 0.1 mm 2 mps 750 mmHg 98%
02:00 +18°C° 0.1 mm 2 mps 749 mmHg 98%
03:00 +18°C° 0 mm 2 mps 749 mmHg 98%
04:00 +18°C° 0 mm 2 mps 749 mmHg 97%
05:00 +18°C° 0 mm 2 mps 749 mmHg 97%
06:00 +19°C° 0.3 mm 2 mps 748 mmHg 94%
07:00 +20°C° 0.3 mm 2 mps 748 mmHg 92%
08:00 +20°C° 0.3 mm 2 mps 748 mmHg 89%
09:00 +21°C° 0.1 mm 3 mps 748 mmHg 82%
10:00 +22°C° 0.1 mm 3 mps 748 mmHg 75%
11:00 +22°C° 0.1 mm 3 mps 748 mmHg 68%
12:00 +24°C° 0 mm 3 mps 748 mmHg 62%
13:00 +25°C° 0 mm 3 mps 748 mmHg 56%
14:00 +26°C° 0 mm 3 mps 748 mmHg 50%
15:00 +26°C° 0.2 mm 3 mps 748 mmHg 50%
16:00 +26°C° 0.2 mm 3 mps 747 mmHg 50%
17:00 +26°C° 0.2 mm 3 mps 747 mmHg 50%
18:00 +25°C° 0 mm 3 mps 747 mmHg 56%
19:00 +24°C° 0 mm 3 mps 747 mmHg 62%
20:00 +21°C° 0 mm 3 mps 747 mmHg 68%
21:00 +21°C° 0 mm 3 mps 748 mmHg 63%
22:00 +21°C° 0 mm 4 mps 748 mmHg 58%
23:00 +22°C° 0 mm 4 mps 748 mmHg 53%
Show more